ROMMA est une association bénévole à but non lucratif. Votre soutien est indispensable : ADHERER à ROMMA ou FAIRE un DON

Die - (26, Drôme)

Diois (400 m)   Longitude: 5° 21' 55"E   Latitude: 44° 45' 16"N Station partenaire n°159
 

Détail journalier du     <<     >>

Température Precipitation Humidité Pression Vent Dir Rafale Dir. rafale Ensol.
Heure (°C) (mm) (%) (hPa) (km/h) (km/h) (min)
01:00 10.20.26510317NNE26NO0
02:00 10.3060103010N32N0
03:00 10.1062103015N32N0
04:00 10.2062103013NO34NO0
05:00 10.506410308NO26NNO0
06:00 10.406310298NO23NO0
07:00 10.506310297N26SO0
08:00 9.306810305ONO13ONO0
09:00 10.706310307NO26S0
10:00 11.406210317NO27NO50
11:00 12.006010319N32N50
12:00 12.406010318NNO21N60
13:00 12.6059103010NO26NO60
14:00 12.4059103010N29N60
15:00 11.905910298N24S50
16:00 10.7063102910N23ENE0
17:00 9.4067103010NNO21N0
18:00 8.4069103111N27N0
19:00 8.1068103111NO24NNO0
20:00 7.4069103110NNO21NO0
21:00 7.4069103112NO26NO0
22:00 7.1067103113N29NO0
23:00 7.1066103215NNO31NNO0
minuit 6.3068103112NO26N0

Graphique du 04-01-2020

 

Serveur OMMA